Location: Most
(50.5133°N, 13.6207°E)
Time: 04:34:39
(UTC+02:00)

UNHA 3 R/B - Pass Details

Date: 30 September 2020
Orbit: 479 x 556 km, 97.4° (Epoch: 20 October)

Event Time Altitude Azimuth Distance (km) Brightness Sun altitude
Rises 05:00:57 0° 18° (NNE) 2,658 9.4 -20.1°
Reaches altitude 10° 05:03:06 10° 24° (NNE) 1,778 8.5 -19.8°
Maximum altitude 05:06:49 47° 99° (E) 718 6.2 -19.2°
Drops below altitude 10° 05:10:36 10° 174° (S) 1,803 7.8 -18.7°
Enters shadow 05:11:39 - 178° (S) 2,233 8.3 -18.5°
